FW0409 Weather Reports


Display with metric or nautical units.
time (UTC)temp
F
wind
direction
speed
MPH
gust
MPH
rain 1hr
in
rain 24hr
in
rain mn
in
humidity
%
barometer
mb
20260503190531 79 294 0.0 9.0 0.00 0.00 0.00 53 1010.3
20260503190032 79 308 3.0 9.0 0.00 0.00 0.00 52 1010.4
20260503185529 78 276 4.0 8.0 0.00 0.00 0.00 54 1010.4
20260503185028 78 349 2.0 8.0 0.00 0.00 0.00 57 1010.6
20260503184527 77 291 1.0 8.0 0.00 0.00 0.00 55 1010.7
20260503184025 77 283 1.0 7.0 0.00 0.00 0.00 59 1010.5
20260503183525 76 313 2.0 8.0 0.00 0.00 0.00 56 1010.6
20260503183023 76 313 0.0 8.0 0.00 0.00 0.00 59 1010.8
20260503182523 76 286 2.0 8.0 0.00 0.00 0.00 58 1010.8
20260503182021 76 313 1.0 8.0 0.00 0.00 0.00 58 1010.9
20260503181520 75 303 4.0 9.0 0.00 0.00 0.00 61 1010.8
20260503181019 75 290 5.0 9.0 0.00 0.00 0.00 62 1010.9
20260503180518 74 288 4.0 9.0 0.00 0.00 0.00 64 1010.9
20260503180019 74 299 4.0 9.0 0.00 0.00 0.00 62 1011.1
20260503175514 73 290 4.0 8.0 0.00 0.00 0.00 63 1011.1
20260503175014 73 286 2.0 7.0 0.00 0.00 0.00 64 1011.2
20260503174513 73 295 2.0 8.0 0.00 0.00 0.00 65 1011.2
20260503174012 73 304 4.0 8.0 0.00 0.00 0.00 64 1011.5
20260503173511 73 318 3.0 8.0 0.00 0.00 0.00 63 1011.3
20260503173020 72 349 2.0 5.0 0.00 0.00 0.00 62 1011.3
20260503172508 72 311 3.0 5.0 0.00 0.00 0.00 63 1011.4
20260503172007 72 310 3.0 6.0 0.00 0.00 0.00 62 1011.4
20260503171515 72 16 3.0 6.0 0.00 0.00 0.00 64 1011.5
20260503171005 71 349 3.0 5.0 0.00 0.00 0.00 65 1011.6
20260503170503 70 12 3.0 6.0 0.00 0.00 0.00 65 1011.5
20260503150534 55 226 0.0 2.0 0.00 0.00 0.00 95 1012.3
20260503131033 48 227 0.0 1.0 0.00 0.00 0.00 95 1011.8
20260503130528 48 227 0.0 2.0 0.00 0.00 0.00 94 1011.8
20260503110517 51 225 0.0 0.0 0.00 0.00 0.00 92 1012.0
20260503090502 54 215 0.0 0.0 0.00 0.00 0.00 92 1012.4
20260503081557 54 229 0.0 0.0 0.00 0.02 0.00 90 1012.2
20260503081100 54 227 0.0 0.0 0.00 0.02 0.00 90 1012.4
20260503080558 54 229 0.0 0.0 0.00 0.02 0.00 90 1012.3
20260503072550 55 211 0.0 2.0 0.00 0.02 0.00 89 1012.4
20260503072051 56 219 0.0 2.0 0.00 0.02 0.00 89 1012.4
20260503071557 56 227 1.0 2.0 0.00 0.02 0.00 89 1012.4
20260503071048 56 227 0.0 1.0 0.00 0.02 0.00 89 1012.3
20260503070548 56 216 0.0 1.0 0.00 0.02 0.00 89 1012.5
20260503070109 56 228 0.0 0.0 0.00 0.02 0.00 88 1012.4
20260503060107 59 227 0.0 3.0 0.00 0.02 0.02 85 1012.3
20260503055047 59 229 0.0 3.0 0.00 0.02 0.02 85 1012.4
20260503054545 59 229 1.0 3.0 0.00 0.02 0.02 84 1012.4
20260503054044 60 255 0.0 2.0 0.00 0.02 0.02 84 1012.2
20260503053544 60 254 0.0 4.0 0.00 0.02 0.02 83 1012.1
20260503053044 60 255 0.0 4.0 0.00 0.02 0.02 83 1012.0
20260503052542 60 254 1.0 3.0 0.00 0.02 0.02 83 1011.9
20260503052043 60 165 0.0 2.0 0.00 0.02 0.02 83 1011.9
20260503051547 60 165 0.0 2.0 0.00 0.02 0.02 82 1012.1
20260503051043 61 165 0.0 2.0 0.00 0.02 0.02 82 1012.2
20260503050543 61 163 1.0 2.0 0.00 0.02 0.02 82 1012.1
20260503050044 61 166 0.0 2.0 0.00 0.02 0.02 81 1012.2
20260503045543 61 166 1.0 3.0 0.00 0.02 0.02 81 1012.3
20260503045043 61 165 0.0 3.0 0.00 0.02 0.02 81 1012.4
20260503044544 62 166 0.0 3.0 0.00 0.02 0.02 80 1012.6
20260503044046 62 166 0.0 2.0 0.00 0.02 0.02 80 1012.5
20260503043542 62 166 0.0 0.0 0.00 0.02 0.02 79 1012.5
20260503043044 62 166 0.0 2.0 0.00 0.02 0.02 79 1012.5
20260503042541 62 166 0.0 2.0 0.00 0.02 0.02 79 1012.6
20260503042042 63 165 0.0 3.0 0.00 0.02 0.02 78 1012.7
20260503041542 63 165 0.0 5.0 0.00 0.02 0.02 78 1012.6
20260503041045 63 165 2.0 5.0 0.00 0.02 0.02 77 1012.5
20260503040541 63 163 0.0 2.0 0.00 0.02 0.02 76 1012.4
20260503040042 64 163 0.0 0.0 0.00 0.02 0.02 76 1012.4
20260503035541 64 152 0.0 2.0 0.00 0.02 0.02 76 1012.3
20260503035041 64 153 0.0 2.0 0.00 0.02 0.02 76 1012.4
20260503034540 64 165 0.0 0.0 0.00 0.02 0.02 75 1012.3
20260503034045 64 165 0.0 0.0 0.00 0.02 0.02 74 1012.2
20260503033541 65 164 0.0 0.0 0.00 0.02 0.02 74 1012.3
20260503033047 65 164 0.0 0.0 0.00 0.02 0.02 74 1012.3
20260503032540 65 164 0.0 1.0 0.00 0.02 0.02 73 1012.2
20260503032038 65 165 0.0 5.0 0.00 0.02 0.02 73 1012.2
20260503031539 65 165 0.0 6.0 0.00 0.02 0.02 72 1012.4
20260503031038 65 161 4.0 6.0 0.00 0.02 0.02 72 1012.4
20260503030536 66 184 2.0 4.0 0.00 0.02 0.02 72 1012.4
20260503030037 66 188 1.0 10.0 0.00 0.02 0.02 72 1012.1
20260503025536 66 186 3.0 10.0 0.00 0.02 0.02 71 1012.2
20260503025035 67 160 3.0 14.0 0.00 0.02 0.02 70 1012.0
20260503024535 67 152 8.0 14.0 0.00 0.02 0.02 69 1012.0
20260503024036 68 179 7.0 15.0 0.00 0.02 0.02 68 1011.9
20260503023537 69 138 7.0 13.0 0.00 0.02 0.02 67 1011.9
20260503023034 70 164 6.0 12.0 0.00 0.02 0.02 65 1011.9
20260503022534 70 156 6.0 12.0 0.00 0.02 0.02 65 1011.6
20260503022043 70 162 4.0 11.0 0.00 0.02 0.02 64 1011.7
20260503021534 70 151 4.0 8.0 0.00 0.02 0.02 65 1011.7
20260503021034 70 172 4.0 6.0 0.00 0.02 0.02 65 1011.6
20260503020534 70 186 3.0 7.0 0.00 0.02 0.02 65 1011.3
20260503020034 70 188 2.0 6.0 0.00 0.02 0.02 66 1011.2
20260503015533 71 178 2.0 4.0 0.00 0.02 0.02 67 1011.1
20260503015036 71 188 2.0 4.0 0.00 0.02 0.02 66 1011.0
20260503014533 71 198 1.0 3.0 0.00 0.02 0.02 65 1011.0
20260503014033 71 198 0.0 4.0 0.00 0.02 0.02 65 1010.8
20260503013533 72 198 1.0 4.0 0.00 0.02 0.02 64 1010.9
20260503013044 72 221 1.0 3.0 0.00 0.02 0.02 62 1011.0
20260503012533 72 281 1.0 3.0 0.00 0.02 0.02 62 1010.8
20260503012031 72 284 1.0 3.0 0.00 0.02 0.02 63 1010.9
20260503011536 72 286 1.0 3.0 0.00 0.02 0.02 62 1010.9
20260503011036 72 287 0.0 1.0 0.00 0.02 0.02 60 1010.7
20260503010531 72 287 0.0 2.0 0.00 0.02 0.02 61 1010.7
20260503010033 72 287 0.0 2.0 0.00 0.02 0.02 61 1010.9
20260503005531 72 289 0.0 2.0 0.00 0.02 0.02 60 1010.9
20260503005033 72 289 0.0 2.0 0.00 0.02 0.02 60 1010.9
20260503004533 72 289 0.0 3.0 0.00 0.02 0.02 61 1010.9
20260503004030 72 290 0.0 3.0 0.00 0.02 0.02 61 1011.0
20260503003530 72 290 1.0 3.0 0.00 0.02 0.02 60 1011.0
20260503003032 72 293 0.0 5.0 0.00 0.02 0.02 61 1011.0
20260503002529 72 294 0.0 5.0 0.00 0.02 0.02 61 1011.0
20260503002029 72 309 2.0 4.0 0.00 0.02 0.02 61 1010.9
20260503001529 72 213 0.0 3.0 0.00 0.02 0.02 60 1011.0
20260503001029 72 213 1.0 4.0 0.00 0.02 0.02 60 1011.0
20260503000528 72 195 1.0 7.0 0.00 0.02 0.02 60 1010.9
20260503000029 72 176 2.0 7.0 0.00 0.02 0.02 61 1011.0
20260502235528 72 301 2.0 9.0 0.00 0.02 0.02 60 1011.0
20260502235029 72 300 2.0 9.0 0.00 0.02 0.02 60 1011.0
20260502234526 72 238 0.0 4.0 0.00 0.02 0.02 61 1011.1
20260502234026 72 298 1.0 5.0 0.00 0.02 0.02 62 1011.2
20260502233524 71 298 0.0 7.0 0.00 0.02 0.02 61 1011.2
20260502233024 71 244 2.0 6.0 0.00 0.02 0.02 61 1011.2
20260502232524 71 197 2.0 5.0 0.00 0.02 0.02 62 1011.3
20260502232023 71 300 2.0 5.0 0.00 0.02 0.02 61 1011.3
20260502231523 71 199 0.0 4.0 0.00 0.02 0.02 61 1011.4
20260502231023 71 284 0.0 2.0 0.00 0.02 0.02 64 1011.5
20260502230522 71 313 0.0 7.0 0.00 0.02 0.02 63 1011.7
20260502230123 71 313 1.0 7.0 0.00 0.02 0.02 62 1011.5
20260502225520 71 283 1.0 7.0 0.00 0.02 0.02 61 1011.8
20260502225021 71 227 1.0 5.0 0.00 0.02 0.02 60 1011.9
20260502224521 71 254 1.0 7.0 0.00 0.02 0.02 60 1011.9
20260502224020 71 243 2.0 7.0 0.00 0.02 0.02 61 1012.0
20260502223519 71 202 0.0 5.0 0.00 0.02 0.02 63 1012.2
20260502223018 71 248 2.0 5.0 0.00 0.02 0.02 60 1012.2
20260502222518 71 316 0.0 8.0 0.00 0.02 0.02 61 1012.4
20260502222016 71 294 3.0 8.0 0.00 0.02 0.02 62 1012.4
20260502221516 70 295 3.0 8.0 0.00 0.02 0.02 64 1012.4
20260502221016 70 333 1.0 5.0 0.00 0.02 0.02 62 1012.6
20260502220514 70 338 1.0 8.0 0.00 0.02 0.02 62 1012.7
20260502220012 70 342 3.0 8.0 0.00 0.02 0.02 63 1012.7
20260502215512 69 312 2.0 6.0 0.00 0.02 0.02 63 1012.9
20260502215012 69 338 3.0 6.0 0.00 0.02 0.02 68 1012.9
20260502214511 68 331 0.0 6.0 0.00 0.02 0.02 65 1013.1
20260502214010 68 240 1.0 8.0 0.00 0.02 0.02 63 1013.1
20260502213510 69 240 3.0 8.0 0.00 0.02 0.02 62 1013.0
20260502213009 69 68 3.0 8.0 0.00 0.02 0.02 63 1013.2
20260502212508 69 346 3.0 9.0 0.00 0.02 0.02 63 1013.3
20260502212008 69 21 4.0 9.0 0.00 0.02 0.02 64 1013.4
20260502211517 68 360 3.0 9.0 0.00 0.02 0.02 64 1013.4
20260502211004 68 19 4.0 8.0 0.00 0.02 0.02 66 1013.5
20260502210503 68 300 1.0 8.0 0.00 0.02 0.02 64 1013.6
20260502210004 67 355 4.0 10.0 0.00 0.02 0.02 69 1013.8
20260502205503 67 292 4.0 10.0 0.00 0.02 0.02 66 1014.0
20260502205100 67 297 3.0 9.0 0.00 0.02 0.02 69 1014.1
20260502204559 66 291 3.0 8.0 0.00 0.02 0.02 67 1014.0
20260502204058 66 288 2.0 4.0 0.00 0.02 0.02 69 1014.1
20260502203558 65 348 0.0 4.0 0.00 0.02 0.02 69 1014.2
20260502203106 65 318 1.0 7.0 0.00 0.02 0.02 68 1014.2
20260502202554 64 294 2.0 7.0 0.00 0.02 0.02 69 1014.2
20260502202053 64 278 0.0 7.0 0.00 0.02 0.02 68 1014.3
20260502201605 64 101 1.0 4.0 0.00 0.02 0.02 70 1014.5
20260502201053 64 131 1.0 8.0 0.00 0.02 0.02 69 1014.4
20260502200552 64 242 5.0 14.0 0.00 0.02 0.02 69 1014.4
20260502200051 64 9 6.0 14.0 0.00 0.02 0.02 70 1014.5
20260502195551 64 225 2.0 9.0 0.00 0.02 0.02 69 1014.5
20260502195049 64 360 3.0 9.0 0.00 0.02 0.02 72 1014.6
20260502194551 63 289 0.0 9.0 0.00 0.02 0.02 74 1014.7
20260502194047 62 286 2.0 9.0 0.00 0.02 0.02 73 1014.7
20260502193546 62 316 1.0 6.0 0.00 0.02 0.02 74 1014.8
20260502193049 61 302 2.0 6.0 0.00 0.02 0.02 74 1014.7
20260502192543 60 254 1.0 6.0 0.00 0.02 0.02 75 1015.0
20260502192040 60 238 1.0 5.0 0.00 0.02 0.02 77 1014.9
20260502191540 59 192 1.0 7.0 0.00 0.02 0.02 77 1015.1
20260502191038 59 199 1.0 7.0 0.00 0.02 0.02 78 1014.9